Flag for U.S.A. Weather past 2 weeks in Asheville, North Carolina, U.S.A.

Now
70 °F

Mostly cloudy.


Feels Like: 67 °F
Forecast: 67 / 82 °F
Wind: No wind

Location: Asheville Regional Airport

Current Time: Jul 23, 2014 at 2:55:12 AM

Latest Report: Jul 23, 2014 at 12:54 AM


Visibility: 10 mi

Pressure: 30.13 "Hg

Humidity: 90%

Dew point: 67 °F

Location of AshevilleLocation

Historic Weather in Asheville — Graph

°F

Asheville temperature yesterday

Maximum temperature yesterday: 75 °F (at 12:54 PM)
Minimum temperature yesterday: 66 °F (at 2:54 AM)
Average temperature yesterday: 70 °F

Past Weeks' High & Low Weather Summary

 TemperatureHumidityPressure
High86 °F (Jul 8, 2:54 PM)100% (Jul 10, 6:03 AM)30.30 "Hg (Jul 10, 6:03 AM)
Low58 °F (Jul 8, 6:54 AM)39% (Jul 8, 4:54 PM)29.79 "Hg (Jul 15, 4:54 PM)
Average71 °F79%30.07 "Hg
* Reported Jul 8 12:54 AM — Jul 23 12:54 AM, Asheville, Weather by CustomWeather, © 2014

Note: Actual official high and low records may vary slightly from our data, if they occured in-between our weather recording intervals... More about our weather records

Advertising

Asheville weather history for previous 24 hours

 ConditionsComfort  
Time TempWeatherWind HumidityBarometerVisibility
12:54 AM
Jul 23
70 °FMostly cloudy.No wind90%30.13 "Hg10 mi
11:54 PM
Jul 22
71 °FOvercast.No wind87%30.13 "Hg10 mi
10:54 PM70 °FOvercast.No wind90%30.14 "Hg10 mi
9:54 PM72 °FPassing clouds.3 mph84%30.13 "Hg10 mi
8:54 PM72 °FPassing clouds.7 mph87%30.11 "Hg10 mi
7:54 PM75 °FPartly sunny.8 mph79%30.11 "Hg10 mi
12:54 PM75 °FScattered clouds.3 mph74%30.15 "Hg10 mi
11:54 AM74 °FPartly sunny.5 mph76%30.16 "Hg10 mi
10:54 AM73 °FMostly cloudy.No wind79%30.16 "Hg10 mi
10:01 AM71 °FMostly cloudy.No wind84%30.25 "Hg10 mi
8:54 AM69 °FOvercast.No wind90%30.17 "Hg10 mi
7:54 AM68 °FOvercast.No wind93%30.16 "Hg10 mi
7:01 AM66 °FPartly cloudy.No wind96%30.21 "Hg7 mi
5:54 AM66 °FFog.No wind96%30.13 "Hg6 mi
4:54 AM67 °FFog.No wind93%30.11 "Hg5 mi
4:04 AM67 °FMostly cloudy.3 mph97%30.18 "Hg7 mi
3:54 AM67 °FLight rain. Mostly cloudy.No wind97%30.12 "Hg8 mi
2:54 AM66 °FPassing clouds.No wind96%30.12 "Hg9 mi
Weather by CustomWeather, © 2014

See weather overviewHow to use our weather pages